STARLINK-34827 (65038 NORAD) Tracking and Keplerian Element Data

This shows tracking and keplerian element data for the satellite.

Feedback or suggestion? Click here.




ElementValue
Catalog65038
NameSTARLINK-34827
Epoch Orbit2205
Epoch Day354.13317329
Epoch Year2025
RAAN303.429
Inclination53.1615
Eccentricity0.0001435
Argument of Perigee88.9318
Mean Anonmoly271.1847
Mean Motion15.30200451
Decay Rate0.00020945
L11 65038U 25161Z 25354.13317329 .00020945 00000+0 71728-3 0 9992
L22 65038 53.1615 303.4290 0001435 88.9318 271.1847 15.30200451 22056



Live tracking and technical data element details for STARLINK-34827 (NORAD 65038). STARLINK-34827 can be tracked NOW for your location showing map with azimuth and elevation plus other details from your city location.







IsCatalogInMostPopularTable: catalog: 65038, numindb: 7
Update: records affected: 1



GetName: 65038 STARLINK-34827

Hit Count: updated at: Mon, 20 Apr 2026 09:17:37 GMT